Flag for Germany Weather past 2 weeks in Troisdorf, North Rhine-Westphalia, Germany

Now
34 °F

Passing clouds.


Feels Like: 29 °F
Forecast: 29 / 39 °F
Wind: 6 mph from Southwest

Location: Koeln / Bonn

Current Time: Jan 31, 2015 at 8:20:12 PM

Latest Report: Jan 31, 2015 at 7:50 PM


Visibility: N/A

Pressure: 29.09 "Hg

Humidity: 81%

Dew point: 28 °F

Location of TroisdorfLocation

Historic Weather in Troisdorf — Graph

°F

Troisdorf temperature yesterday

Maximum temperature yesterday: 39 °F (at 2:50 PM)
Minimum temperature yesterday: 32 °F (at 1:50 AM)
Average temperature yesterday: 35 °F

Past Weeks' High & Low Weather Summary

 TemperatureHumidityPressure
High45 °F (Jan 29, 1:50 PM)100% (Jan 20, 4:20 AM)30.42 "Hg (Jan 20, 4:20 AM)
Low27 °F (Jan 19, 7:20 AM)57% (Jan 29, 1:50 PM)28.71 "Hg (Jan 30, 12:50 AM)
Average35 °F85%29.84 "Hg
* Reported Jan 16 7:20 PM — Jan 31 7:20 PM, Troisdorf, Weather by CustomWeather, © 2014

Note: Actual official high and low records may vary slightly from our data, if they occured in-between our weather recording intervals... More about our weather records

Advertising

Troisdorf weather history for previous 24 hours

 ConditionsComfort  
Time TempWeatherWind HumidityBarometerVisibility
7:20 PM
Jan 31
34 °FPassing clouds.3 mph81%29.09 "HgN/A
6:50 PM36 °FPassing clouds.3 mph75%29.09 "HgN/A
6:20 PM36 °FPassing clouds.3 mph75%29.06 "HgN/A
5:50 PM36 °FPassing clouds.3 mph75%29.06 "HgN/A
5:20 PM37 °FPassing clouds.2 mph75%29.06 "HgN/A
4:20 PM39 °FSnow flurries. Scattered clouds.7 mph70%29.03 "HgN/A
3:50 PM41 °FScattered clouds.10 mph61%29.03 "HgN/A
3:20 PM41 °FScattered clouds.10 mph66%29.03 "HgN/A
2:50 PM41 °FScattered clouds.12 mph61%29.00 "HgN/A
2:20 PM41 °FScattered clouds.13 mph61%29.00 "HgN/A
1:50 PM45 °FScattered clouds.12 mph61%29.00 "HgN/A
1:20 PM43 °FScattered clouds.10 mph61%29.00 "HgN/A
12:50 PM43 °FScattered clouds.12 mph66%29.00 "HgN/A
12:20 PM41 °FScattered clouds.10 mph70%29.00 "HgN/A
11:50 AM39 °FScattered clouds.10 mph70%29.00 "HgN/A
11:20 AM39 °FScattered clouds.9 mph75%29.00 "HgN/A
10:50 AM37 °FSprinkles. Scattered clouds.8 mph75%29.00 "HgN/A
10:20 AM37 °FPartly sunny.8 mph75%29.00 "HgN/A
9:50 AM37 °FPartly sunny.9 mph75%28.97 "HgN/A
9:20 AM36 °FBroken clouds.7 mph87%28.97 "HgN/A
8:50 AM36 °FScattered clouds.10 mph81%28.97 "HgN/A
8:20 AM36 °FScattered clouds.10 mph81%28.97 "HgN/A
7:50 AM36 °FPassing clouds.9 mph87%28.94 "HgN/A
7:20 AM36 °FPartly cloudy.7 mph87%28.94 "HgN/A
6:50 AM36 °FPassing clouds.10 mph87%28.94 "HgN/A
6:20 AM36 °FPartly cloudy.9 mph87%28.94 "HgN/A
5:50 AM36 °FPassing clouds.9 mph87%28.91 "HgN/A
5:20 AM36 °FPassing clouds.10 mph87%28.91 "HgN/A
4:20 AM36 °FPassing clouds.10 mph87%28.91 "HgN/A
3:50 AM36 °FPassing clouds.9 mph81%28.91 "HgN/A
3:20 AM36 °FPassing clouds.10 mph81%28.91 "HgN/A
2:50 AM36 °FPassing clouds.9 mph81%28.91 "HgN/A
2:20 AM36 °FPassing clouds.13 mph81%28.91 "HgN/A
1:50 AM36 °FLight snow. Passing clouds.8 mph75%28.88 "HgN/A
1:20 AM34 °FLight snow. Overcast.8 mph87%28.88 "HgN/A
12:50 AM34 °FLight snow. Passing clouds.7 mph87%28.88 "HgN/A
12:20 AM36 °FLight rain. Passing clouds.7 mph81%28.88 "HgN/A
11:50 PM
Jan 30
36 °FLight rain. Passing clouds.10 mph81%28.88 "HgN/A
11:20 PM34 °FPassing clouds.7 mph81%28.88 "HgN/A
10:20 PM34 °FPassing clouds.7 mph87%28.88 "HgN/A
9:50 PM36 °FPartly cloudy.7 mph81%28.88 "HgN/A
9:20 PM36 °FPartly cloudy.6 mph75%28.88 "HgN/A
8:50 PM36 °FPassing clouds.8 mph75%28.88 "HgN/A
8:20 PM34 °FPartly cloudy.6 mph81%28.88 "HgN/A
Weather by CustomWeather, © 2014

See weather overviewHow to use our weather pages